User: anonymous   Login
Location: ?????
(42.2640°N, 43.4211°E)
Time: 12:02:01
(UTC+00:00)
Language:

Cosmos 1606 Rocket - Orbit

View from above orbital plane
View from above orbital plane
View from above satellite
View from above satellite

Ground track
Ground track

The orbit data is extracted from the following two-line orbital elements,

1 15370U 84111B   20296.71766124 +.00000075 +00000-0 +61614-5 0  9999
2 15370 082.5131 300.4010 0020388 343.5333 016.5217 14.83729192924497
Epoch (UTC): 22 October 2020 17:13:25
Eccentricity: 0.0020388
inclination: 82.5131°
perigee height: 603 km
apogee height: 632 km
right ascension of ascending node: 300.4010°
argument of perigee: 343.5333°
revolutions per day: 14.83729192
mean anomaly at epoch: 16.5217°
orbit number at epoch: 92449

The dashed part of the orbit path shows where the satellite is in the earth's shadow,  

DLR